#�ϑ�����,���ϕ���,���ϕ���,�ő啗��,�ő啗����������,�ő�u�ԕ���,�ő�u�ԕ�����������
#(�N����),(m/s)   ,(16����),(m/s)   ,(16����)        ,(m/s)       ,(16����)            
2012/1/26 10:27,1,16,1.3,2,2,3
2012/1/26 10:28,0.6,4,1,2,1.1,10
2012/1/26 10:29,0.6,2,0.6,2,1.8,16
2012/1/26 10:30,0.8,3,0.8,2,1.8,8
2012/1/26 10:31,0.9,2,0.9,2,3.1,16
2012/1/26 10:32,0.9,2,1,2,2.1,1
2012/1/26 10:33,1,2,1,2,2.6,2
2012/1/26 10:34,1,2,1,2,2.9,4
2012/1/26 10:35,1,2,1,2,2.6,4
2012/1/26 10:36,1,3,1,2,2,10
2012/1/26 10:37,1.1,3,1.1,3,3.7,8
2012/1/26 10:38,1.3,4,1.3,4,3.2,10
2012/1/26 10:39,1.5,5,1.5,5,5.8,10
2012/1/26 10:40,1.5,5,1.5,5,2.7,4
2012/1/26 10:41,1.7,8,1.7,8,8.3,11
2012/1/26 10:42,2.1,9,2.1,9,7.4,10
2012/1/26 10:43,2.2,9,2.2,9,3.9,7
2012/1/26 10:44,2.2,9,2.2,9,3.9,8
2012/1/26 10:45,2.2,9,2.2,9,2.2,6
2012/1/26 10:46,2.2,9,2.2,9,3.6,10
2012/1/26 10:47,2.3,9,2.3,9,6.2,10
2012/1/26 10:48,2.4,10,2.4,10,4.5,9
2012/1/26 10:49,2.3,10,2.3,10,4.1,10
2012/1/26 10:50,2.5,10,2.5,10,5.2,10
2012/1/26 10:51,2.4,9,2.7,10,7.2,10
2012/1/26 10:52,2.5,10,2.6,10,11.9,9
2012/1/26 10:53,2.5,10,2.6,10,3.2,10
2012/1/26 10:54,2.5,10,2.6,10,5,8
2012/1/26 10:55,2.8,10,2.8,10,7.6,9
2012/1/26 10:56,3.1,10,3.1,10,7.7,8
2012/1/26 10:57,3.2,10,3.2,10,9.8,9
2012/1/26 10:58,3.6,10,3.6,10,10,10
2012/1/26 10:59,3.6,10,3.7,10,5.4,10
2012/1/26 11:00,3.5,10,3.6,10,6.4,11
2012/1/26 11:01,3.5,10,3.5,10,4.4,9
2012/1/26 11:02,3.1,10,3.5,10,4.7,9
2012/1/26 11:03,3.2,10,3.2,10,5.8,9
2012/1/26 11:04,3.3,10,3.3,10,6.9,12
2012/1/26 11:05,2.9,10,3.2,10,1.3,9
2012/1/26 11:06,2.7,10,2.9,10,3.3,10
2012/1/26 11:18,0.8,13,1.1,13,1.6,11
2012/1/26 11:19,0.3,11,0.3,13,0,15
2012/1/26 11:20,0.2,11,0.3,13,0.3,12
2012/1/26 11:21,0.1,11,0.2,13,0,12
2012/1/26 11:22,0.1,11,0.1,13,0,12
2012/1/26 11:23,0.1,11,0.1,13,0,12
2012/1/26 11:24,0.1,11,0.1,13,0,12
2012/1/26 11:25,0.1,11,0.1,13,0,12
2012/1/26 11:26,0,11,0.1,13,0,12
2012/1/26 11:27,0,11,0,13,0,12
2012/1/26 11:28,0,11,0,12,0,12
2012/1/26 11:29,0,12,0,11,0,12
2012/1/26 11:30,0,12,0,11,0,12
2012/1/26 11:31,0,12,0,11,0,12
2012/1/26 11:32,0,12,0,11,0,12
2012/1/26 11:33,0,12,0,11,0,12
2012/1/26 11:34,0,12,0,11,0.4,12
2012/1/26 11:35,0,12,0,11,0,12
2012/1/26 11:36,0,12,0,11,0,12
2012/1/26 11:37,0.2,12,0.2,12,5.1,13
2012/1/26 11:38,3.1,12,3.1,12,60.5,13
2012/1/26 11:39,5.4,12,5.4,12,85.1,13
2012/1/26 11:40,5.4,12,5.4,12,0,14
2012/1/26 11:41,5.4,12,5.4,12,0,14
2012/1/26 11:42,5.4,12,5.4,12,0,14
2012/1/26 11:43,5.3,13,5.4,12,0,14
2012/1/26 12:22,1,2,1.1,2,1.1,1
2012/1/26 12:23,0.8,7,1.2,6,6.4,7
2012/1/26 12:24,1.1,8,1.1,6,3.5,11
2012/1/26 12:25,1.2,10,1.2,6,2.9,10
2012/1/26 12:26,1.4,11,1.4,11,5.7,10
2012/1/26 12:27,1.8,11,1.8,11,7,11
2012/1/26 12:28,2.1,11,2.1,11,7.2,12
2012/1/26 12:29,2.2,11,2.2,11,6.5,13
2012/1/26 12:30,2.3,11,2.3,11,5.1,11
2012/1/26 12:31,2.6,11,2.6,11,9.1,12
2012/1/26 12:32,2.7,11,2.7,11,8.6,12
2012/1/26 12:33,3.2,12,3.2,12,9.1,11
2012/1/26 12:34,3.3,12,3.4,12,7.5,12
2012/1/26 12:35,3.4,12,3.4,12,4.2,1
2012/1/26 12:36,3.5,12,3.5,12,8.1,11
2012/1/26 12:37,3.4,12,3.5,12,7,11
2012/1/26 12:38,3.6,12,3.6,12,9.8,12
2012/1/26 12:39,3.9,12,3.9,12,8.5,12
2012/1/26 12:40,4,12,4,12,7.2,13
2012/1/26 12:41,4,12,4,12,8.3,12
2012/1/26 12:42,4,12,4,12,6.8,13
2012/1/26 12:43,3.9,12,4,12,8.9,12
2012/1/26 12:44,4,12,4,12,6.4,11
2012/1/26 12:45,4.1,12,4.1,12,6.4,12
2012/1/26 12:46,4,12,4.2,12,6.2,14
2012/1/26 12:47,4,12,4,12,5.1,12
2012/1/26 12:48,3.8,12,4,12,6.7,13
2012/1/26 12:49,3.6,12,3.8,12,7.7,12
2012/1/26 12:50,3.6,12,3.6,12,5.2,12
2012/1/26 12:51,3.2,12,3.5,12,2.9,10
2012/1/26 12:52,3,12,3.2,12,4.5,14
2012/1/26 12:53,2.9,12,3,12,6.1,11
2012/1/26 12:54,3,12,3,12,6.3,11
2012/1/26 12:55,3.2,12,3.2,12,7.9,12
2012/1/26 12:56,3.7,12,3.7,12,11.3,12
2012/1/26 12:57,3.8,12,3.8,12,7.2,13
2012/1/26 12:58,3.7,12,3.8,12,4.3,12
2012/1/26 12:59,3.7,12,3.8,12,5,10
2012/1/26 13:00,3.6,12,3.7,12,6.9,12
2012/1/26 13:01,4,12,4,12,8.1,13
2012/1/26 13:02,4.4,12,4.4,12,7.8,11
2012/1/26 13:03,4.5,12,4.5,12,7.7,12
2012/1/26 13:04,4.4,12,4.5,12,7,14
2012/1/26 13:05,4.3,13,4.4,12,8.2,16
2012/1/26 13:06,4,13,4.3,12,10,16
2012/1/26 13:07,3.7,13,4,12,2.6,16
2012/1/26 13:08,3.6,13,3.7,12,3.6,12
2012/1/26 13:09,3.7,13,3.7,12,6.4,9
2012/1/26 13:10,3.7,13,3.7,12,6.7,12
2012/1/26 13:11,3.6,13,3.8,12,7.4,10
2012/1/26 13:12,3.4,13,3.6,12,6.5,10
2012/1/26 13:13,3.1,13,3.3,12,4.4,13
2012/1/26 13:14,3,13,3.1,12,2.6,12
2012/1/26 13:15,2.8,13,3,13,4.4,12
2012/1/26 13:16,2.7,12,2.8,13,5.7,10
2012/1/26 13:17,2.8,12,2.8,13,6.2,10
2012/1/26 13:18,2.9,12,2.9,13,6.1,10
2012/1/26 13:19,3,12,3,13,11,12
2012/1/26 13:20,3.2,12,3.2,13,12.3,12
2012/1/26 13:21,3.2,12,3.3,13,8.7,15
2012/1/26 13:22,3.4,12,3.4,12,6.1,13
2012/1/26 13:23,3.4,12,3.4,12,5,12
2012/1/26 13:24,3.7,12,3.7,12,7.8,13
2012/1/26 13:25,3.6,12,3.7,12,8.4,13
2012/1/26 13:26,3.7,12,3.8,12,8.4,13
2012/1/26 13:27,3.7,12,3.7,12,4.5,11
2012/1/26 13:28,4,12,4,12,5.7,11
2012/1/26 13:29,3.8,13,4,12,4.9,11
2012/1/26 13:30,3.5,13,3.8,12,5.7,12
2012/1/26 13:31,3.5,12,3.5,12,9.8,13
2012/1/26 13:32,3.5,13,3.6,12,7.5,12
2012/1/26 13:33,3.5,13,3.5,12,5.1,16
2012/1/26 13:34,3.4,13,3.4,12,7.1,14
2012/1/26 13:35,3.5,13,3.6,12,6.2,12
2012/1/26 13:36,3.4,13,3.5,12,5,11
2012/1/26 13:37,3.4,13,3.5,12,5.5,13
2012/1/26 13:38,3.2,13,3.4,12,4.1,16
2012/1/26 13:39,3,13,3.2,13,3.2,16
2012/1/26 13:40,2.9,13,3,12,2.9,12
2012/1/26 13:41,2.7,13,3,12,7.4,14
2012/1/26 13:42,2.7,13,2.7,13,5.7,11
2012/1/26 13:43,3,13,3,13,8.9,11
2012/1/26 13:44,3,13,3.1,13,6.4,12
2012/1/26 13:45,3,13,3.1,13,6.1,12
2012/1/26 13:46,3.1,13,3.1,13,4.3,15
2012/1/26 13:47,3,13,3.1,13,4.2,15
2012/1/26 13:48,3,14,3,13,3.5,16
2012/1/26 13:49,3.1,14,3.1,13,5.5,16
2012/1/26 13:50,3.4,14,3.4,14,5.7,14
2012/1/26 13:51,3.3,14,3.3,14,5.5,10
2012/1/26 13:52,3.4,14,3.4,14,7.7,11
2012/1/26 13:53,3.2,14,3.4,14,6.3,12
2012/1/26 13:54,3.3,14,3.3,14,7.4,13
2012/1/26 13:55,3.2,14,3.2,14,5.7,14
2012/1/26 13:56,3.4,13,3.4,14,6.7,12
2012/1/26 13:57,3.5,13,3.5,13,5,13
2012/1/26 13:58,3.8,13,3.8,13,8.6,12
2012/1/26 13:59,3.8,13,3.8,13,4.8,13
2012/1/26 14:00,3.7,12,3.8,13,4.1,12
2012/1/26 14:01,3.8,13,3.8,13,5.6,15
2012/1/26 14:02,3.6,13,3.8,13,5.2,13
2012/1/26 14:03,3.6,13,3.7,13,5.8,13
2012/1/26 14:04,3.4,13,3.6,13,4.5,11
2012/1/26 14:05,3.4,13,3.4,13,6.9,13
2012/1/26 14:06,3.5,13,3.5,13,7,12
2012/1/26 14:07,3.3,13,3.5,13,4.1,1
2012/1/26 14:08,3.3,13,3.4,13,5.6,13
2012/1/26 14:09,3.3,13,3.3,13,6.7,12
2012/1/26 14:10,3.5,13,3.5,13,6.7,14
2012/1/26 14:11,3.5,13,3.5,13,6.9,14
2012/1/26 14:12,3.6,13,3.7,13,6,15
2012/1/26 14:13,3.5,13,3.6,13,5.6,12
2012/1/26 14:14,3.5,13,3.6,13,5.8,12
2012/1/26 14:15,3.5,13,3.6,13,7,12
2012/1/26 14:16,3.4,13,3.5,13,5.6,16
2012/1/26 14:17,3.5,13,3.5,13,4.8,14
2012/1/26 14:18,3.2,13,3.4,13,3.2,16
2012/1/26 14:19,3.1,14,3.2,13,6.5,16
2012/1/26 14:20,2.9,14,3.1,13,4.9,14
2012/1/26 14:21,2.9,14,2.9,13,5.4,12
2012/1/26 14:22,2.9,14,2.9,13,5.6,13
2012/1/26 14:23,2.9,13,3,13,4.5,14
2012/1/26 14:24,2.7,14,2.9,13,3.8,14
2012/1/26 14:25,2.5,14,2.7,13,4.1,14
2012/1/26 14:26,2.4,13,2.5,13,5.4,11
2012/1/26 14:27,2.3,13,2.4,13,4.4,10
2012/1/26 14:28,2.4,13,2.4,14,2.9,13
2012/1/26 14:29,2.4,13,2.4,14,6,12
2012/1/26 14:30,2.5,12,2.5,13,4.4,11
2012/1/26 14:31,2.4,12,2.5,13,6.2,12
2012/1/26 14:32,2.3,12,2.3,13,9.4,11
2012/1/26 14:33,2.6,12,2.6,13,8.2,13
2012/1/26 14:34,3.1,12,3.1,12,8.7,13
2012/1/26 14:35,3.5,12,3.5,12,8.9,12
2012/1/26 14:36,3.7,12,3.7,12,7.7,12
2012/1/26 14:37,3.9,12,3.9,12,8.1,12
2012/1/26 14:38,4.2,12,4.2,12,7.1,13
2012/1/26 14:39,4.4,12,4.4,12,9.3,12
2012/1/26 14:40,4.5,12,4.5,12,6.1,12
2012/1/26 14:41,4.3,12,4.4,12,3.9,10
2012/1/26 14:42,4.3,12,4.4,12,5.6,14
2012/1/26 14:43,4.2,12,4.3,12,7.4,12
2012/1/26 14:44,4,13,4.2,12,6.3,14
2012/1/26 14:45,4,13,4.1,12,6.8,12
2012/1/26 14:46,3.9,13,4,12,7.5,13
2012/1/26 14:47,3.7,13,3.9,12,5,12
2012/1/26 14:48,3.5,13,3.7,12,3.6,12
2012/1/26 14:49,3.2,13,3.5,12,2.7,14
2012/1/26 14:50,3.1,13,3.1,12,5,12
2012/1/26 14:51,3.2,13,3.2,12,5.5,13
2012/1/26 14:52,3.3,13,3.3,12,5.1,13
2012/1/26 14:53,3,13,3.2,12,5.6,12
2012/1/26 14:54,3.1,13,3.1,13,6.8,13
2012/1/26 14:55,3,13,3.1,13,6.2,12
2012/1/26 14:56,3,13,3.1,13,6.7,15
2012/1/26 14:57,3,13,3,13,5.1,12
2012/1/26 14:58,3,13,3,13,5.1,12
2012/1/26 14:59,3.1,13,3.1,13,5,14
2012/1/26 15:00,3.1,13,3.2,13,4.2,12
2012/1/26 15:01,3.2,13,3.2,13,6.7,11
2012/1/26 15:02,3.2,13,3.2,13,4.9,12
2012/1/26 15:03,3.3,13,3.3,13,5.6,12
2012/1/26 15:04,3.2,13,3.4,13,6.3,12
2012/1/26 15:05,3.1,13,3.2,13,5.1,11
2012/1/26 15:06,2.8,12,3.1,13,2.9,11
2012/1/26 15:07,2.6,12,2.8,13,3,10
2012/1/26 15:08,2.7,12,2.7,13,5.8,11
2012/1/26 15:09,2.8,12,2.9,13,5.4,12
2012/1/26 15:10,3,12,3,13,5.7,12
2012/1/26 15:11,2.9,12,3,13,4.4,11
2012/1/26 15:12,2.9,12,2.9,13,5.4,11
2012/1/26 15:13,3,12,3,13,5.7,13
2012/1/26 15:14,3.1,12,3.1,13,6.2,13
2012/1/26 15:15,3.1,12,3.1,13,6.2,12
2012/1/26 15:16,3.3,12,3.3,12,4.8,13
2012/1/26 15:17,3.4,13,3.4,12,3.5,15
2012/1/26 15:18,3.3,13,3.4,12,3.3,14
2012/1/26 15:19,3.3,13,3.3,12,6.5,13
2012/1/26 15:20,3.3,13,3.3,12,6.3,12
2012/1/26 15:21,3.3,13,3.3,12,4.3,14
2012/1/26 15:22,3.2,13,3.3,12,4.3,13
2012/1/26 15:23,2.9,13,3.1,12,2.4,15
2012/1/26 15:24,2.7,14,2.8,12,3.3,16
2012/1/26 15:25,2.4,14,2.7,12,2.7,2
2012/1/26 15:26,2.3,14,2.4,12,3.3,11
2012/1/26 15:27,2.4,13,2.4,13,8.5,10
2012/1/26 15:28,2.5,13,2.5,13,9,10
2012/1/26 15:29,2.5,13,2.5,13,6.3,12
2012/1/26 15:30,2.3,13,2.5,13,5.1,13
2012/1/26 15:31,2.2,13,2.3,13,3,11
2012/1/26 15:32,2.2,13,2.2,13,4.9,15
2012/1/26 15:33,2.2,13,2.2,13,2.7,16
2012/1/26 15:34,2.3,12,2.3,14,7.5,13
2012/1/26 15:35,2.6,12,2.6,12,6,13
2012/1/26 15:36,2.8,12,2.8,12,5.7,12
2012/1/26 15:37,2.8,12,2.9,12,4.9,12
2012/1/26 15:38,2.7,12,2.8,12,4.2,13
2012/1/26 15:39,2.5,12,2.7,12,3.1,10
2012/1/26 15:40,2.5,12,2.5,12,3.7,9
2012/1/26 15:41,2.8,12,2.8,12,7.8,12
2012/1/26 15:42,2.8,12,2.8,12,7.7,12
2012/1/26 15:43,2.9,12,2.9,12,6,12
2012/1/26 15:44,3.1,12,3.2,12,8.4,13
2012/1/26 15:45,3.1,12,3.1,12,6.1,10
2012/1/26 15:46,3.2,12,3.2,12,7.6,13
2012/1/26 15:47,3.3,12,3.3,12,7.9,14
2012/1/26 15:48,3.4,12,3.4,12,4.2,13
2012/1/26 15:49,3.5,12,3.5,12,5.6,13
2012/1/26 15:50,3.4,12,3.5,12,3.7,13
2012/1/26 15:51,3,12,3.4,12,1,6
2012/1/26 15:52,3,12,3,12,5,11
2012/1/26 15:53,3.3,12,3.3,12,8.5,13
2012/1/26 15:54,3.2,12,3.3,12,7.4,14
2012/1/26 15:55,3.3,13,3.3,12,6.9,13
2012/1/26 15:56,3.3,13,3.3,12,7.1,13
2012/1/26 15:57,3.3,13,3.3,12,7.2,12
2012/1/26 15:58,3.5,13,3.5,12,6.3,12
2012/1/26 15:59,3.4,13,3.5,12,5.6,13
2012/1/26 16:00,3.8,13,3.8,13,5.8,11
2012/1/26 16:01,4,13,4,13,4.8,15
2012/1/26 16:02,4,13,4,13,5.1,14
2012/1/26 16:03,3.7,13,4,13,5.7,15
2012/1/26 16:04,3.6,13,3.7,13,6.1,16
2012/1/26 16:05,3.4,13,3.6,13,4.3,16
2012/1/26 16:06,3.1,14,3.4,13,4.7,1
2012/1/26 16:07,2.7,14,3.1,13,3,15
2012/1/26 16:08,2.5,14,2.7,13,3.2,14
2012/1/26 16:09,2.5,14,2.6,13,3.5,13
2012/1/26 16:10,2.2,14,2.5,13,2.2,13
2012/1/26 16:11,2,14,2.2,13,1.1,1
2012/1/26 16:12,1.8,14,2,13,3.6,1
2012/1/26 16:13,1.8,14,1.8,13,7.5,12
2012/1/26 16:14,1.8,14,1.9,13,6.9,14
2012/1/26 16:15,1.8,14,1.8,13,4.3,1
2012/1/26 16:16,2,14,2,14,6.3,13
2012/1/26 16:17,2.2,14,2.2,14,5.2,15
2012/1/26 16:18,2.2,14,2.2,14,4.3,14
2012/1/26 16:19,2.2,14,2.2,14,5.7,13
2012/1/26 16:20,2.2,14,2.2,14,5.2,11
2012/1/26 16:21,2.6,14,2.6,14,8.6,14
2012/1/26 16:22,2.8,14,2.8,14,4.4,1
2012/1/26 16:23,2.9,14,2.9,14,6,15
2012/1/26 16:24,2.8,14,2.8,14,4.7,12
2012/1/26 16:25,2.8,14,2.8,14,5.2,16
2012/1/26 16:26,2.8,14,2.8,14,8.1,15
2012/1/26 16:27,2.8,14,2.8,14,4.5,15
2012/1/26 16:28,2.9,14,2.9,14,5.4,16
2012/1/26 16:29,2.9,14,3,14,5.5,15
2012/1/26 16:30,3,14,3,14,5.2,13
2012/1/26 16:31,2.9,14,3,14,6.5,12
2012/1/26 16:32,2.9,14,2.9,14,6.3,12
2012/1/26 16:33,3,13,3.1,13,8.6,11
2012/1/26 16:34,3,13,3.1,13,5.4,16
2012/1/26 16:35,3.1,13,3.1,13,6.1,14
2012/1/26 16:36,3.1,13,3.1,13,7.8,12
2012/1/26 16:37,3.3,13,3.3,13,7.9,14
2012/1/26 16:38,3.2,13,3.3,13,6.1,12
2012/1/26 16:39,3.2,13,3.2,13,4.5,12
2012/1/26 16:40,3.2,12,3.2,13,6.5,15
2012/1/26 16:41,3.2,12,3.3,13,5.7,11
2012/1/26 16:42,3.2,12,3.3,13,5.2,9
2012/1/26 16:43,3,12,3.2,13,5.1,11
2012/1/26 16:44,3.2,12,3.2,13,8.6,10
2012/1/26 16:45,3.3,12,3.3,13,6.7,11
2012/1/26 16:46,3.2,12,3.4,12,4.5,11
2012/1/26 16:47,3,12,3.2,12,4.3,13
2012/1/26 16:48,3,12,3,12,4.1,11
2012/1/26 16:49,3,12,3,12,3.6,13
2012/1/26 16:50,2.9,12,3,12,4.9,12
2012/1/26 16:51,2.8,13,2.9,12,4.9,16
2012/1/26 16:52,2.7,13,2.8,12,4.2,15
2012/1/26 16:53,2.7,13,2.7,12,4.4,15
2012/1/26 16:54,2.5,14,2.7,12,5.5,16
2012/1/26 16:55,2.4,14,2.5,12,5.4,15
2012/1/26 16:56,2.4,14,2.4,12,4.3,14
2012/1/26 16:57,2.5,14,2.5,12,5.2,11
2012/1/26 16:58,2.6,14,2.6,12,5.1,13
2012/1/26 16:59,2.8,14,2.8,12,6.4,11
2012/1/26 17:00,2.8,14,2.9,12,4.2,13
2012/1/26 17:01,2.8,13,2.8,14,3.8,12
2012/1/26 17:02,2.7,13,2.8,14,5,12
2012/1/26 17:03,2.8,13,2.8,14,4.9,11
2012/1/26 17:04,2.8,13,2.8,14,3.5,13
2012/1/26 17:05,2.6,13,2.8,14,2.1,14
2012/1/26 17:06,2.4,12,2.6,14,2,13
2012/1/26 17:07,2.3,13,2.4,14,3,16
2012/1/26 17:08,2.2,13,2.2,14,4.3,14
2012/1/26 17:09,2.1,13,2.2,14,6.5,16
2012/1/26 17:10,2,13,2.1,14,5,1
2012/1/26 17:11,2,13,2,13,2.9,14
2012/1/26 17:12,2,14,2,13,2.2,15
2012/1/26 17:13,1.9,14,1.9,13,3.9,15
2012/1/26 17:14,2,14,2,13,5.2,15
2012/1/26 17:15,2.2,14,2.2,13,6.8,14
2012/1/26 17:16,2.4,14,2.4,12,4.9,13
2012/1/26 17:17,2.5,14,2.5,14,5,11
2012/1/26 17:18,2.9,14,2.9,14,9,13
2012/1/26 17:19,3.1,14,3.1,14,6.8,13
2012/1/26 17:20,3.2,14,3.2,14,5.2,12
2012/1/26 17:21,3.3,14,3.3,14,3.7,13
2012/1/26 17:22,3.5,14,3.5,14,3.2,16
2012/1/26 17:23,3.4,14,3.5,14,3.2,11
2012/1/26 17:24,3.4,13,3.4,14,4.8,13
2012/1/26 17:25,3.4,13,3.5,14,5.7,13
2012/1/26 17:26,3.2,13,3.4,14,2,13
2012/1/26 17:27,3.1,13,3.2,14,3.8,11
2012/1/26 17:28,2.6,13,3,14,3.1,13
2012/1/26 17:29,2.3,13,2.5,14,2.7,12
2012/1/26 17:30,2.2,13,2.3,14,5.5,13
2012/1/26 17:31,2.3,13,2.3,14,6,13
2012/1/26 17:32,2.3,13,2.3,14,5.1,15
2012/1/26 17:33,2.5,13,2.5,13,6.5,16
2012/1/26 17:34,2.5,13,2.6,13,4.1,1
2012/1/26 17:35,2.3,13,2.4,13,2.4,12
2012/1/26 17:36,2.3,13,2.3,13,3.5,15
2012/1/26 17:37,2.4,14,2.4,13,3.6,15
2012/1/26 17:38,2.5,14,2.5,13,4.3,14
2012/1/26 17:39,2.5,14,2.5,13,3.8,15
2012/1/26 17:40,2.3,14,2.5,13,2.1,11
2012/1/26 17:41,2.2,14,2.2,13,3.7,10
2012/1/26 17:42,2.1,14,2.2,13,3,14
2012/1/26 17:43,1.8,14,2,13,2.9,14
2012/1/26 17:44,1.7,13,1.8,14,3.2,10
2012/1/26 17:45,1.8,13,1.8,14,3.2,10
2012/1/26 17:46,1.7,13,1.8,14,1.3,10
2012/1/26 17:47,1.7,12,1.8,14,4.3,11
2012/1/26 17:48,1.7,12,1.7,14,4.2,10
2012/1/26 17:49,1.8,11,1.8,14,6.8,8
2012/1/26 17:50,2,11,2,14,5.7,9
2012/1/26 17:51,2.2,11,2.2,14,9.7,9
2012/1/26 17:52,2.2,11,2.3,11,4.7,11
2012/1/26 17:53,2.3,10,2.3,11,4.2,7
2012/1/26 17:54,2.4,11,2.4,10,3.5,11
2012/1/26 17:55,2.4,11,2.4,10,6.2,10
2012/1/26 17:56,2.6,11,2.6,11,6.7,8
2012/1/26 17:57,2.6,11,2.7,11,4.7,10
2012/1/26 17:58,2.7,11,2.7,11,5.4,11
2012/1/26 17:59,2.5,11,2.7,11,4.3,10
2012/1/26 18:00,2.4,11,2.5,11,3.5,11
2012/1/26 18:01,2.2,11,2.3,11,5.1,10
2012/1/26 18:02,2.1,11,2.2,11,4.2,8
2012/1/26 18:03,2.1,11,2.1,11,3.7,9
2012/1/26 18:04,2.2,11,2.2,11,5.7,9
2012/1/26 18:05,2.3,11,2.4,11,5.2,11
2012/1/26 18:06,2.2,11,2.3,11,5.2,12
2012/1/26 18:07,2.3,11,2.3,11,5.4,11
2012/1/26 18:08,2.1,11,2.3,11,2.7,7
2012/1/26 18:09,2,11,2.1,11,1.1,15
2012/1/26 18:10,2,11,2,11,4.7,12
2012/1/26 18:11,2,12,2.1,11,3.5,16
2012/1/26 18:12,1.8,12,1.9,11,1.5,1
2012/1/26 18:13,1.7,13,1.8,11,1.9,16
2012/1/26 18:14,1.5,13,1.7,11,1.4,16
2012/1/26 18:15,1.3,14,1.5,11,1,14
2012/1/26 18:16,1.1,14,1.3,11,1.1,15
2012/1/26 18:17,1,15,1.1,11,2.2,11
2012/1/26 18:18,1.1,15,1.1,11,3.3,11
2012/1/26 18:19,1.2,14,1.2,11,3.1,12
2012/1/26 18:20,1.1,14,1.2,11,2.1,10
2012/1/26 18:21,1.1,14,1.1,12,2.7,9
2012/1/26 18:22,1.3,13,1.3,12,3.6,9
2012/1/26 18:23,1.3,12,1.4,13,2.6,9
2012/1/26 18:24,1.4,11,1.4,13,4.2,9
2012/1/26 18:25,1.5,11,1.5,11,3.1,8
2012/1/26 18:26,1.7,10,1.7,11,2.9,9
2012/1/26 18:27,1.7,10,1.7,11,2.9,9
2012/1/26 18:28,1.7,10,1.7,11,3.3,10
2012/1/26 18:29,1.7,10,1.7,11,2.6,11
2012/1/26 18:30,1.6,10,1.7,11,1.1,11
2012/1/26 18:31,1.6,10,1.6,11,2.2,14
2012/1/26 18:32,1.5,11,1.6,11,1.4,14
2012/1/26 18:33,1.5,11,1.5,11,2,15
2012/1/26 18:34,1.4,12,1.5,11,2,14
2012/1/26 18:35,1.3,12,1.4,11,1.9,13
2012/1/26 18:36,1.2,12,1.3,10,1.5,13
2012/1/26 18:37,1.2,13,1.2,10,1.9,10
2012/1/26 18:38,1.1,13,1.2,10,1.9,10
2012/1/26 18:39,0.9,13,1.1,10,0.8,11
2012/1/26 18:40,1,12,1,10,1.8,11
2012/1/26 18:41,0.9,12,0.9,10,1.1,10
2012/1/26 18:42,0.8,12,0.9,11,1.1,8
2012/1/26 18:43,0.8,11,0.8,12,1,10
2012/1/26 18:44,0.7,11,0.8,12,1,10
2012/1/26 18:45,0.7,11,0.7,12,1.5,9
2012/1/26 18:46,0.7,10,0.7,13,1.5,8
2012/1/26 18:47,0.7,10,0.7,13,1.5,9
2012/1/26 18:48,0.8,10,0.8,13,1.4,9
2012/1/26 18:49,0.8,10,0.8,13,1.5,10
2012/1/26 18:50,0.8,10,0.8,12,1.8,9
2012/1/26 18:51,0.8,10,0.8,12,1.8,9
2012/1/26 18:52,0.9,9,0.9,9,2,8
2012/1/26 18:53,0.9,9,1,9,1.8,9
2012/1/26 18:54,0.9,9,0.9,9,0.9,9
2012/1/26 18:55,0.9,9,0.9,9,0.3,12
2012/1/26 18:56,0.8,9,0.8,9,0.3,11
2012/1/26 18:57,0.7,10,0.8,9,0.9,2
2012/1/26 18:58,0.7,10,0.7,9,2.6,16
2012/1/26 18:59,0.8,10,0.8,9,2.5,16
2012/1/26 19:00,0.8,12,0.8,9,2.4,16
2012/1/26 19:01,0.8,13,0.8,9,1.6,1
2012/1/26 19:02,0.7,14,0.8,9,1.3,1
2012/1/26 19:03,0.6,15,0.7,9,0.6,2
2012/1/26 19:04,0.6,16,0.6,9,0.4,3
2012/1/26 19:05,0.6,16,0.6,9,0.8,10
2012/1/26 19:06,0.6,1,0.6,10,0.6,8
2012/1/26 19:07,0.6,1,0.6,10,0.5,9
2012/1/26 19:08,0.5,2,0.6,10,0.5,9
2012/1/26 19:09,0.4,3,0.5,11,0.1,8
2012/1/26 19:10,0.2,2,0.4,12,0.5,15
2012/1/26 19:11,0.2,2,0.2,13,1.4,16
2012/1/26 19:12,0.3,2,0.3,14,1.5,16
2012/1/26 19:13,0.4,1,0.4,15,1.4,16
2012/1/26 19:14,0.4,16,0.4,16,1.4,15
2012/1/26 19:15,0.5,16,0.5,16,1.6,16
2012/1/26 19:16,0.5,16,0.5,1,1.1,15
2012/1/26 19:17,0.6,16,0.6,1,1.5,1
2012/1/26 19:18,0.7,16,0.7,16,1.4,15
2012/1/26 19:19,0.8,16,0.8,16,1.8,16
2012/1/26 19:20,0.9,16,0.9,16,1.9,16
2012/1/26 19:21,1,16,1,16,1.6,16
2012/1/26 19:22,1,16,1,16,1.8,16
2012/1/26 19:23,1.1,16,1.1,16,2.5,16
2012/1/26 19:24,1,16,1.1,16,1.6,1
2012/1/26 19:25,1.1,16,1.1,16,1.6,15
2012/1/26 19:26,1.1,16,1.1,16,1.8,14
2012/1/26 19:27,1.2,16,1.2,16,2.2,16
2012/1/26 19:28,1.2,16,1.3,16,2.7,16
2012/1/26 19:29,1.2,16,1.2,16,1.3,16
2012/1/26 19:30,1.1,15,1.2,16,1.6,15
2012/1/26 19:31,1.1,15,1.1,16,1.1,14
2012/1/26 19:32,1,15,1.1,16,1.1,14
2012/1/26 19:33,1,15,1,16,1.8,14
2012/1/26 19:34,1,15,1,16,2.2,14
2012/1/26 19:35,1.1,14,1.1,16,2.1,13
2012/1/26 19:36,1,14,1.1,16,1.5,9
2012/1/26 19:37,0.9,13,1,16,1.4,9
2012/1/26 19:38,0.9,13,0.9,16,1.4,11
2012/1/26 19:39,0.9,13,0.9,15,1.4,11
2012/1/26 19:40,0.9,12,1,15,1.8,9
2012/1/26 19:41,0.9,12,0.9,15,1,12
2012/1/26 19:42,1,12,1,15,1.4,11
2012/1/26 19:43,1,11,1,15,1.9,12
2012/1/26 19:44,1,11,1,15,1.6,9
2012/1/26 19:45,1,11,1,14,2.1,9
2012/1/26 19:46,1,10,1,14,2.2,9
2012/1/26 19:47,1.1,10,1.1,10,2.2,10
2012/1/26 19:48,1.1,10,1.1,10,2,9
2012/1/26 19:49,1.1,10,1.1,10,2.1,9
2012/1/26 19:50,1.2,10,1.2,10,3.1,9
2012/1/26 19:51,1.2,10,1.2,10,1.8,9
2012/1/26 19:52,1.3,9,1.3,10,2.6,10
2012/1/26 19:53,1.3,9,1.3,10,2.7,9
2012/1/26 19:54,1.4,9,1.4,9,3.1,9
2012/1/26 19:55,1.5,9,1.5,9,2.5,10
2012/1/26 19:56,1.5,9,1.5,9,3,10
2012/1/26 19:57,1.6,9,1.6,9,2.5,9
2012/1/26 19:58,1.6,10,1.6,9,2.4,11
2012/1/26 19:59,1.6,10,1.6,9,1.4,9
2012/1/26 20:00,1.5,10,1.5,9,1.5,11
2012/1/26 20:01,1.4,10,1.5,9,0.6,10
2012/1/26 20:02,1.3,10,1.4,9,0.9,9
2012/1/26 20:03,1.1,10,1.3,9,0.9,12
2012/1/26 20:04,1,11,1.1,9,1.5,12
2012/1/26 20:05,0.9,11,1,9,2,10
2012/1/26 20:06,0.8,11,0.9,9,1.6,10
2012/1/26 20:07,0.7,11,0.8,10,1.1,8
2012/1/26 20:08,0.6,11,0.7,10,0.9,10
2012/1/26 20:09,0.6,11,0.6,10,0.8,9
2012/1/26 20:10,0.5,10,0.6,10,0.8,9
2012/1/26 20:11,0.5,10,0.5,10,0.5,9
2012/1/26 20:12,0.5,11,0.5,10,0.5,11
2012/1/26 20:13,0.5,10,0.5,10,0.5,10
2012/1/26 20:14,0.4,10,0.5,11,0.5,8
2012/1/26 20:15,0.3,10,0.4,11,0.8,10
2012/1/26 20:16,0.3,10,0.3,11,1.1,8
2012/1/26 20:17,0.3,10,0.3,11,0.9,8
2012/1/26 20:18,0.4,10,0.4,11,1.4,8
2012/1/26 20:19,0.4,10,0.4,11,1.3,9
2012/1/26 20:20,0.5,9,0.5,10,1.1,9
2012/1/26 20:21,0.5,9,0.5,10,1.3,10
2012/1/26 20:22,0.6,9,0.6,9,1.4,10
2012/1/26 20:23,0.7,9,0.7,9,1.5,10
2012/1/26 20:24,0.8,9,0.8,9,1.6,10
2012/1/26 20:25,1,9,1,9,2.5,10
2012/1/26 20:26,1.1,9,1.1,9,2.2,10
2012/1/26 20:27,1.3,10,1.3,10,2.5,10
2012/1/26 20:28,1.4,10,1.4,10,2.6,10
2012/1/26 20:29,1.5,10,1.5,10,2.1,10
2012/1/26 20:30,1.4,10,1.5,10,1.3,8
2012/1/26 20:31,1.4,10,1.4,10,1.4,10
2012/1/26 20:32,1.4,10,1.4,10,1.6,10
2012/1/26 20:33,1.4,10,1.4,10,2.2,11
2012/1/26 20:34,1.4,10,1.4,10,2.4,11
2012/1/26 20:35,1.3,10,1.4,10,2.9,10
2012/1/26 20:36,1.2,10,1.3,10,1.5,11
2012/1/26 20:37,1.1,10,1.2,10,1.3,8
2012/1/26 20:38,0.9,10,1,10,0.9,10
2012/1/26 20:39,0.8,11,0.9,10,1.6,11
2012/1/26 20:40,0.9,11,0.9,10,1.3,12
2012/1/26 20:41,0.9,11,0.9,10,1.3,13
2012/1/26 20:42,0.9,11,0.9,10,2.1,12
2012/1/26 20:43,0.8,11,0.9,10,1.4,9
2012/1/26 20:44,0.9,11,0.9,10,1.6,11
2012/1/26 20:45,0.9,11,0.9,10,2.4,9
2012/1/26 20:46,1,11,1,10,2.4,9
2012/1/26 20:47,1,11,1,10,1.9,11
2012/1/26 20:48,1.1,11,1.1,11,1.4,10
2012/1/26 20:49,1.1,10,1.1,11,1.4,9
2012/1/26 20:50,1.1,10,1.1,11,0.8,9
2012/1/26 20:51,1,10,1,11,1.1,8
2012/1/26 20:52,1,10,1,11,1.8,9
2012/1/26 20:53,1,10,1,11,1.5,9
2012/1/26 20:54,0.9,10,1,11,1,8
2012/1/26 20:55,0.9,10,0.9,11,1.6,9
2012/1/26 20:56,0.8,9,0.9,11,0.8,10
2012/1/26 20:57,0.7,9,0.8,11,0.8,9
2012/1/26 20:58,0.7,9,0.7,11,1.5,8
2012/1/26 20:59,0.6,9,0.7,10,1,10
2012/1/26 21:00,0.6,9,0.6,10,1,10
2012/1/26 21:01,0.6,9,0.6,10,0.9,10
2012/1/26 21:02,0.5,9,0.6,10,0.3,8
2012/1/26 21:03,0.4,9,0.5,10,0.6,8
2012/1/26 21:04,0.4,9,0.4,10,0.1,9
2012/1/26 21:05,0.2,9,0.3,10,0.1,9
2012/1/26 21:06,0.2,9,0.2,9,0.1,9
2012/1/26 21:07,0.2,9,0.2,9,0.1,2
2012/1/26 21:08,0.1,8,0.2,9,0,3
2012/1/26 21:09,0.1,8,0.1,9,0.5,5
2012/1/26 21:10,0.1,7,0.1,9,0.8,3
2012/1/26 21:11,0.2,6,0.2,9,1,4
2012/1/26 21:12,0.2,5,0.2,9,0.9,3
2012/1/26 21:13,0.2,4,0.2,9,0.8,5
2012/1/26 21:14,0.3,4,0.3,9,0.9,4
2012/1/26 21:15,0.3,4,0.3,4,0.9,4
2012/1/26 21:16,0.4,3,0.4,3,0.9,3
2012/1/26 21:17,0.4,3,0.4,3,0.5,2
2012/1/26 21:18,0.4,3,0.4,3,1,2
2012/1/26 21:19,0.5,3,0.5,3,1.3,3
2012/1/26 21:20,0.6,3,0.6,3,1.5,2
2012/1/26 21:21,0.6,3,0.6,3,1.4,2
2012/1/26 21:22,0.6,3,0.6,3,1.3,3
2012/1/26 21:23,0.7,3,0.7,3,1.3,2
2012/1/26 21:24,0.8,3,0.8,3,1.5,3
2012/1/26 21:25,0.8,2,0.8,3,1.3,2
2012/1/26 21:26,0.8,2,0.8,3,0.6,16
2012/1/26 21:27,0.8,2,0.8,3,1.1,2
2012/1/26 21:28,0.8,2,0.8,3,1.1,1
2012/1/26 21:29,0.8,2,0.8,3,1.1,1
2012/1/26 21:30,0.7,2,0.8,3,1,1
2012/1/26 21:31,0.6,2,0.7,3,0,2
2012/1/26 21:32,0.5,1,0.6,3,0,2
2012/1/26 21:33,0.4,1,0.5,3,0.3,1
2012/1/26 21:34,0.3,1,0.4,3,1,1
2012/1/26 21:35,0.3,1,0.3,2,1.3,1
2012/1/26 21:36,0.3,1,0.3,2,0.6,1
2012/1/26 21:37,0.3,1,0.3,2,0.3,2
2012/1/26 21:38,0.2,1,0.3,2,0.3,13
2012/1/26 21:39,0.3,1,0.3,2,1.4,10
2012/1/26 21:40,0.3,1,0.3,2,0.8,16
2012/1/26 21:41,0.3,1,0.3,2,0.6,3
2012/1/26 21:42,0.3,1,0.3,1,0.9,4
2012/1/26 21:43,0.4,1,0.4,1,0.9,11
2012/1/26 21:44,0.4,16,0.4,1,1.8,12
2012/1/26 21:45,0.4,14,0.5,16,2.2,12
2012/1/26 21:46,0.4,13,0.4,16,0.1,10
2012/1/26 21:47,0.5,12,0.5,16,2,11
2012/1/26 21:48,0.6,12,0.6,12,1.5,11
2012/1/26 21:49,0.6,12,0.6,12,0.8,8
2012/1/26 21:50,0.6,11,0.6,12,2.6,11
2012/1/26 21:51,0.7,11,0.7,11,2.6,11
2012/1/26 21:52,0.8,11,0.8,11,1.3,14
2012/1/26 21:53,0.8,11,0.8,11,1.4,8
2012/1/26 21:54,0.8,11,0.8,11,2,9
2012/1/26 21:55,0.7,11,0.8,11,1,12
2012/1/26 21:56,0.8,11,0.8,11,1.3,10
2012/1/26 21:57,0.7,11,0.8,11,0.9,12
2012/1/26 21:58,0.7,11,0.7,11,1.1,13
2012/1/26 21:59,0.7,11,0.7,11,1.1,11
2012/1/26 22:00,0.8,11,0.8,11,2.6,11
2012/1/26 22:01,0.7,11,0.7,11,1,12
2012/1/26 22:02,0.7,11,0.7,11,1.3,13
2012/1/26 22:03,0.7,11,0.7,11,1.4,10
2012/1/26 22:04,0.6,11,0.7,11,1.4,13